Vertical_Velocity
-5 0 -1 1 -1 -3 -2 0 -2 -1 -0 5 3 1 -3 3 2 -1 -2 -4 -2 -3 -6 -3 -1 2 2 -4 -3 6 -4 -1 2 -0 1 -2 -3 -2
2 2 -1 -0 -4 -2 -5 0 -2 -3 -6 -4 1 0 0 2 2 3 2 3 4 8 8 8 4 1 -0 -3 -7 -3 -2 -3 -4 -4 -4 -3 -4 -3
-4 -7 1 -5 -3 0 -2 2 1 1 -6 -2 -5 -3 -5 -1 -4 -2 -2 -7 -9 -13 -9 -7 -5 1 4 5 4 1 7 -1 -2 -5 -4 -3 -2 -0
-0 -1 -2 -0 -3 -2 1 1 0 -3 -2 -1 0 -2 -6 -2 -5 -3 -6 -2 -2 -3 -4 -5 -4 -4 0 -7 -5 -3 -5 -2 -1 -2 -2 -2 -4 -3
0 -2 -0 -2 -2 1 -1 1 -2 -1 0 -1 -3 -1 -5 -4 -4 -2 0 1 3 -1 -5 -1 -1 -1 -5 -1 -4 -2 -1 -4 -1 -4 -4 -3 -3 -2
2 2 0 -2 -2 4 0 -6 -2 1 1 2 1 -2 -1 -5 -1 4 -1 -4 -2 -6 -2 -4 -10 -6 -2 -0 -3 -2 1 0 -1 -2 -3 -3 -1 -1
-0 -0 -1 -1 -3 -6 -4 0 -1 0 -1 -2 -4 -2 -3 -2 -1 -3 3 1 -5 -2 -1 -10 -8 1 2 0 0 -1 1 1 2 -1 -1 -3 -2 -3
-1 -3 -2 -8 2 -0 -1 -3 -0 1 -3 -3 -4 1 0 -1 -1 -2 -3 -3 -11 -16 -1 -13 2 -14 -0 -0 -2 1 1 1 -1 -1 -1 -2 -2 -3
-2 -4 -5 2 -1 1 1 0 1 4 5 3 -0 -0 -2 -4 -2 -5 -4 3 -3 -3 -5 -8 -3 -5 0 -2 -3 2 1 -1 0 -0 0 0 -1 -1
-1 1 0 0 -1 0 -2 -3 1 -0 1 5 3 5 1 -2 8 7 2 3 -1 -9 1 6 -2 -7 -1 -1 -5 -2 -2 -1 2 1 -0 -1 -0 -3
-2 1 -2 -1 -1 -0 -1 0 -4 -3 -5 -2 -10 -1 -1 -3 5 -1 -2 5 -3 -6 -4 3 -5 -8 -3 -11 -4 -0 -1 -1 -1 -0 1 1 0 -2
-2 1 -3 -0 -1 -0 -2 -6 -2 0 -3 -5 3 1 -7 -1 -5 -3 1 1 -1 -9 -5 1 -5 10 -13 -4 -4 -0 -2 1 -1 -2 -1 -0 -0 -5
1 -0 -4 -0 -1 -0 -2 -3 -2 -3 0 -4 0 1 1 -1 -0 -1 0 0 1 -1 1 7 -1 2 5 -1 -3 -7 2 -6 -3 -4 -1 -0 1 6
-3 2 1 -1 -4 -3 -1 2 -4 -4 1 4 -2 0 1 -3 -0 0 -1 -1 2 1 -3 6 0 5 3 -4 -2 -6 -4 -1 -4 -4 -2 -4 1 1
-3 -5 -6 -2 1 1 -1 -4 -3 8 5 2 -2 -1 -2 1 -2 -4 -3 -1 -3 -1 3 5 2 -1 4 4 -8 -9 -8 -5 -5 -3 1 -2 -5 -2
-1 -2 7 -3 -6 -2 -1 -1 2 1 7 -1 -3 1 0 -2 -5 2 -5 -4 -3 -6 5 2 -2 -1 -2 -1 2 -12 3 1 -1 -2 -2 -3 -4 3
4 1 2 -6 1 3 1 -1 1 6 -0 1 0 -2 -5 -3 -3 -3 -0 -2 -1 -5 -12 -5 1 1 1 3 -7 5 -5 -1 1 -1 -3 -7 -0 -2
1 -1 -1 3 1 3 1 -5 -0 -1 -1 0 -2 -3 -2 -2 -3 -3 -0 -1 -2 -3 -4 -2 -1 -4 -2 -5 -1 -9 1 -2 -0 -2 0 -3 -13 1
1 -5 3 -0 -3 -2 2 -0 -2 1 -1 -2 -2 -1 -0 -1 1 -3 -2 -1 -4 -1 -1 0 -0 4 1 -3 -2 6 -1 -2 0 -5 1 5 -6 -10
-3 -2 -4 -2 1 1 1 -0 -1 -3 -3 -2 -0 0 -0 -0 0 -1 -2 -1 -2 -1 2 4 5 1 3 -1 -6 -10 12 -4 2 -3 -7 2 2 5
-1 -0 3 3 1 -0 -2 -5 -4 -2 -0 -1 0 -1 -2 1 2 -1 -1 1 1 -0 -2 -4 4 3 1 0 -6 -10 1 10 8 1 -1 -2 -8 -14
3 2 0 -3 -3 -3 -2 -1 -1 -1 -0 0 -0 -2 -3 -1 -2 -1 2 0 -2 -1 -0 -2 -1 4 2 2 -3 -7 -9 -5 6 0 12 8 4 -6
-4 -4 -4 -2 -0 -0 -1 -2 -1 1 -0 -2 -3 -1 0 -2 0 -0 -2 -2 0 3 0 -2 0 1 -1 1 3 -3 -2 -4 -7 -13 -3 8 4 4
Height
1525 1528 1527 1528 1529 1531 1532 1533 1532 1532 1533 1530 1528 1524 1522 1520 1516 1513 1511 1507 1505 1502 1499 1497 1493 1491 1488 1485 1483 1480 1478 1479 1475 1473 1471 1468 1466 1464
1523 1524 1526 1526 1529 1530 1529 1530 1527 1528 1530 1527 1524 1520 1518 1515 1512 1509 1507 1504 1501 1499 1496 1494 1490 1487 1485 1481 1478 1475 1471 1470 1469 1467 1465 1462 1460 1458
1522 1523 1525 1525 1528 1528 1529 1527 1524 1521 1523 1523 1519 1515 1515 1511 1508 1506 1503 1500 1497 1495 1492 1488 1485 1483 1480 1476 1472 1470 1467 1462 1460 1459 1457 1454 1453 1452
1519 1522 1523 1525 1525 1526 1526 1523 1521 1519 1519 1518 1516 1510 1509 1508 1505 1501 1499 1496 1493 1491 1487 1485 1480 1479 1476 1473 1470 1465 1461 1458 1455 1452 1450 1448 1445 1444
1517 1519 1521 1521 1522 1522 1521 1519 1518 1517 1514 1511 1509 1507 1504 1502 1499 1497 1496 1493 1490 1485 1483 1479 1476 1474 1472 1466 1464 1461 1456 1453 1450 1447 1445 1440 1437 1435
1516 1517 1516 1518 1519 1518 1516 1516 1514 1512 1510 1507 1506 1504 1502 1500 1497 1493 1489 1487 1485 1482 1479 1472 1469 1467 1466 1463 1457 1455 1452 1447 1444 1441 1438 1434 1431 1428
1513 1513 1513 1513 1514 1514 1512 1511 1509 1506 1505 1503 1500 1501 1498 1496 1493 1489 1486 1483 1480 1478 1474 1473 1470 1463 1458 1457 1454 1451 1447 1442 1438 1434 1431 1428 1424 1420
1509 1509 1510 1510 1509 1507 1505 1505 1503 1500 1498 1498 1497 1495 1493 1489 1487 1483 1479 1479 1474 1474 1469 1468 1464 1460 1456 1452 1448 1445 1441 1436 1432 1428 1425 1421 1417 1412
1506 1507 1507 1506 1505 1502 1501 1500 1499 1496 1494 1493 1491 1491 1487 1484 1483 1479 1479 1476 1472 1468 1467 1462 1460 1456 1450 1448 1443 1440 1435 1431 1427 1423 1418 1414 1409 1404
1503 1504 1502 1500 1499 1497 1495 1495 1495 1492 1491 1490 1489 1484 1483 1482 1479 1471 1470 1467 1465 1463 1461 1455 1453 1450 1445 1443 1438 1434 1430 1426 1421 1416 1412 1407 1402 1397
1498 1497 1496 1496 1494 1493 1492 1490 1488 1488 1486 1482 1481 1480 1478 1476 1474 1470 1467 1464 1460 1457 1456 1451 1448 1443 1440 1436 1433 1430 1425 1420 1415 1410 1405 1400 1396 1390
1493 1490 1491 1491 1491 1488 1489 1488 1487 1484 1481 1482 1477 1467 1467 1467 1465 1466 1464 1460 1456 1451 1450 1447 1442 1440 1433 1431 1428 1424 1419 1415 1409 1403 1399 1394 1390 1385
1487 1486 1488 1487 1485 1485 1483 1485 1482 1481 1478 1475 1473 1468 1465 1461 1457 1458 1457 1456 1452 1447 1444 1442 1437 1435 1431 1423 1420 1417 1414 1407 1402 1397 1392 1388 1384 1380
1483 1485 1482 1482 1481 1481 1481 1477 1475 1475 1472 1467 1467 1466 1461 1458 1455 1451 1450 1448 1448 1442 1439 1437 1432 1429 1425 1420 1415 1411 1408 1402 1397 1391 1387 1382 1377 1373
1480 1479 1479 1478 1478 1481 1474 1474 1474 1468 1465 1459 1461 1460 1458 1453 1450 1446 1443 1443 1440 1438 1435 1432 1428 1425 1422 1418 1412 1407 1401 1395 1392 1387 1382 1376 1371 1366
1474 1475 1471 1471 1477 1475 1470 1466 1465 1465 1460 1454 1455 1454 1452 1449 1446 1442 1439 1439 1436 1433 1430 1428 1425 1421 1417 1414 1410 1403 1399 1394 1387 1383 1377 1371 1366 1361
1470 1469 1467 1470 1470 1468 1465 1462 1461 1460 1458 1454 1451 1448 1446 1445 1440 1438 1436 1435 1432 1427 1424 1422 1420 1417 1413 1410 1405 1400 1394 1389 1385 1379 1373 1365 1360 1355
1463 1464 1465 1466 1463 1460 1458 1458 1457 1454 1453 1450 1446 1444 1443 1440 1437 1435 1434 1432 1428 1425 1422 1419 1415 1411 1407 1404 1402 1395 1390 1386 1381 1375 1369 1362 1353 1349
1456 1461 1459 1456 1457 1457 1456 1451 1452 1450 1447 1444 1443 1440 1438 1436 1434 1432 1429 1427 1424 1421 1419 1415 1412 1408 1403 1398 1397 1394 1387 1382 1376 1370 1365 1359 1351 1343
1453 1453 1453 1454 1453 1451 1449 1448 1446 1444 1442 1440 1438 1436 1434 1432 1430 1427 1425 1423 1420 1418 1414 1412 1408 1404 1401 1396 1390 1386 1385 1378 1373 1366 1359 1352 1347 1340
1449 1449 1449 1448 1446 1444 1443 1441 1440 1438 1437 1435 1433 1432 1430 1428 1426 1424 1421 1419 1416 1413 1409 1406 1404 1401 1397 1393 1387 1382 1379 1376 1371 1364 1356 1348 1341 1334
1444 1443 1442 1441 1440 1439 1438 1436 1435 1433 1432 1430 1428 1427 1425 1423 1421 1419 1416 1414 1411 1408 1405 1401 1399 1396 1392 1388 1384 1379 1373 1368 1365 1360 1355 1349 1343 1335
1439 1438 1437 1436 1435 1433 1432 1431 1430 1428 1426 1424 1423 1422 1420 1418 1416 1414 1412 1409 1406 1403 1400 1396 1394 1391 1387 1385 1382 1377 1371 1365 1359 1353 1350 1348 1343 1337